Glens Falls, NY

6:08 AM EST on January 22, 2018 (GMT -0500)
Bennett Memorial

Weather History for KGFL - September, 2013

Change the Weather History Date:

Sunday, September 22, 2013

  Actual Average Record
Temperature  
Mean Temperature 54 °F 56 °F  
Max Temperature 64 °F 68 °F 89 °F (1965)
Min Temperature 43 °F 44 °F 29 °F (1962)
Degree Days  
Heating Degree Days 11 9  
Month to date heating degree days 150 130  
Since 1 July heating degree days 188 196  
Cooling Degree Days 0 0  
Month to date cooling degree days 43 23  
Year to date cooling degree days 537 350  
Growing Degree Days 4 (Base 50)    
Moisture  
Dew Point 51 °F    
Average Humidity 73    
Maximum Humidity 97    
Minimum Humidity 48    
Precipitation  
Precipitation 0.09 in 0.13 in 2.82 in (1981)
Month to date precipitation 2.43 2.41  
Year to date precipitation 27.70 28.22  
Sea Level Pressure  
Sea Level Pressure 29.72 in    
Wind  
Wind Speed 8 mph (SW)    
Max Wind Speed 22 mph    
Max Gust Speed 26 mph    
Visibility 10 miles    
Events Rain    
T = Trace of Precipitation, MM = Missing Value Source: NWS Daily Summary

Daily Weather History Graph

Daily Weather History Graph

Search for Another Location

Airport or City:

Trip Planner

Search our weather history database for the weather conditions in past years. The results will help you decide how hot, cold, wet, or windy it might be!

Date:

Astronomy

Sep. 22, 2013 Rise Set
Actual Time 6:41 AM EDT 6:51 PM EDT
Civil Twilight 6:13 AM EDT 7:19 PM EDT
Nautical Twilight 5:40 AM EDT 7:53 PM EDT
Astronomical Twilight 5:05 AM EDT 8:27 PM EDT
Moon 8:32 PM EDT 10:06 AM EDT
Length of Visible Light 13h 06m
Length of Day
12h 09m
Waning Gibbous, 89% of the Moon is Illuminated
Sep 22
Waning Gibbous
Sep 26
Last Quarter
Oct 4
New
Oct 11
First Quarter
Oct 18
Full

Hourly Weather History & Observations

Time (EDT) Temp. Dew Point Humidity Pressure Visibility Wind Dir Wind Speed Gust Speed Precip Events Conditions
12:03 AM 62.6 °F 60.8 °F 94% 29.60 in 3.0 mi West 6.9 mph - 0.04 in Rain Rain
12:11 AM 62.6 °F 60.8 °F 94% 29.60 in 5.0 mi West 4.6 mph - 0.06 in Rain Light Rain
12:53 AM 62.1 °F 59.0 °F 90% 29.60 in 9.0 mi Calm Calm - 0.09 in Rain Light Rain
1:53 AM 61.0 °F 59.0 °F 93% 29.62 in 8.0 mi South 6.9 mph - 0.06 in Rain Light Rain
2:50 AM 60.8 °F 59.0 °F 94% 29.62 in 10.0 mi South 6.9 mph - 0.02 in   Overcast
2:53 AM 60.1 °F 59.0 °F 96% 29.63 in 10.0 mi SSW 6.9 mph - 0.02 in   Overcast
3:01 AM 60.8 °F 60.8 °F 100% 29.62 in 10.0 mi South 4.6 mph - N/A   Overcast
3:53 AM 60.1 °F 59.0 °F 96% 29.61 in 10.0 mi South 9.2 mph - N/A   Overcast
4:45 AM 60.8 °F 59.0 °F 94% 29.62 in 10.0 mi South 6.9 mph - N/A   Mostly Cloudy
4:53 AM 59.0 °F 57.9 °F 96% 29.62 in 10.0 mi South 6.9 mph - N/A   Scattered Clouds
5:14 AM 59.0 °F 57.2 °F 94% 29.63 in 10.0 mi South 8.1 mph - N/A   Mostly Cloudy
5:41 AM 59.0 °F 55.4 °F 88% 29.65 in 10.0 mi SSW 4.6 mph - N/A   Mostly Cloudy
5:53 AM 57.0 °F 54.0 °F 89% 29.66 in 10.0 mi South 5.8 mph - N/A   Mostly Cloudy
6:53 AM 54.0 °F 52.0 °F 93% 29.68 in 10.0 mi South 5.8 mph - N/A   Scattered Clouds
7:53 AM 55.9 °F 52.0 °F 87% 29.70 in 10.0 mi South 9.2 mph - N/A   Clear
8:53 AM 57.9 °F 53.1 °F 84% 29.71 in 10.0 mi SSW 9.2 mph - N/A   Overcast
9:53 AM 59.0 °F 51.1 °F 75% 29.72 in 10.0 mi SW 6.9 mph - N/A   Overcast
10:53 AM 60.1 °F 50.0 °F 69% 29.72 in 10.0 mi SSW 6.9 mph - 0.01 in   Overcast
11:53 AM 60.1 °F 51.1 °F 72% 29.72 in 10.0 mi South 10.4 mph 17.3 mph N/A   Overcast
12:53 PM 62.1 °F 53.1 °F 72% 29.74 in 10.0 mi North 6.9 mph - 0.00 in   Overcast
1:53 PM 62.1 °F 44.1 °F 52% 29.76 in 10.0 mi WNW 20.7 mph 25.3 mph N/A   Mostly Cloudy
2:53 PM 62.1 °F 44.1 °F 52% 29.76 in 10.0 mi West 9.2 mph 17.3 mph N/A   Mostly Cloudy
3:53 PM 62.1 °F 43.0 °F 50% 29.76 in 10.0 mi WNW 12.7 mph 19.6 mph N/A   Overcast
4:53 PM 59.0 °F 41.0 °F 51% 29.79 in 10.0 mi WNW 13.8 mph - N/A   Overcast
5:53 PM 57.0 °F 42.1 °F 57% 29.81 in 10.0 mi NW 8.1 mph - N/A   Overcast
6:53 PM 55.0 °F 41.0 °F 59% 29.85 in 10.0 mi NNW 9.2 mph 18.4 mph N/A   Overcast
7:53 PM 53.1 °F 41.0 °F 64% 29.88 in 10.0 mi NW 6.9 mph - N/A   Clear
8:53 PM 51.1 °F 41.0 °F 68% 29.89 in 10.0 mi NW 12.7 mph - N/A   Clear
9:53 PM 50.0 °F 41.0 °F 71% 29.91 in 10.0 mi NW 4.6 mph - N/A   Clear
10:53 PM 45.0 °F 41.0 °F 86% 29.93 in 10.0 mi Calm Calm - N/A   Clear
11:53 PM 48.0 °F 39.9 °F 74% 29.93 in 10.0 mi NNW 6.9 mph - N/A   Clear